Wetterdaten: Freitag, 17.08.2018
Datum Zeit Temp. A. Aussen2m Boden Feuchte A. Feuchte 2 Luftdruck Regen Wind Richtung Richtung Sonnenschein
17.08.2018 00:00 21,6 C 18,8 C 10,8 C 58 % 81 % 1010,7 hPa 0,0 l/m 6,1 km/h (2 Bft) O-NO 70 0 min
17.08.2018 00:05 21,5 C 18,8 C 10,8 C 59 % 81 % 1010,7 hPa 0,0 l/m 10,3 km/h (2 Bft) N-NO 25 0 min
17.08.2018 00:10 21,5 C 18,8 C 10,8 C 59 % 81 % 1011,7 hPa 0,0 l/m 13,3 km/h (3 Bft) N-NW 345 0 min
17.08.2018 00:15 21,4 C 18,8 C 10,8 C 59 % 81 % 1011,7 hPa 0,0 l/m 7,9 km/h (2 Bft) NO 35 0 min
17.08.2018 00:20 21,3 C 18,8 C 10,8 C 59 % 81 % 1011,7 hPa 0,0 l/m 4,8 km/h (1 Bft) O 85 0 min
17.08.2018 00:25 21,3 C 18,8 C 10,8 C 60 % 81 % 1011,7 hPa 0,0 l/m 5,4 km/h (2 Bft) NO 35 0 min
17.08.2018 00:30 21,2 C 18,8 C 10,8 C 60 % 81 % 1011,7 hPa 0,0 l/m 7,3 km/h (2 Bft) NO 50 0 min
17.08.2018 00:35 21,2 C 18,8 C 10,8 C 60 % 81 % 1011,7 hPa 0,0 l/m 7,3 km/h (2 Bft) NO 35 0 min
17.08.2018 00:40 21,1 C 18,8 C 10,8 C 61 % 81 % 1011,7 hPa 0,0 l/m 3,6 km/h (1 Bft) O 85 0 min
17.08.2018 00:45 21,1 C 18,8 C 10,8 C 61 % 81 % 1011,7 hPa 0,0 l/m 8,5 km/h (2 Bft) NO 45 0 min
17.08.2018 00:50 21,0 C 18,8 C 10,8 C 61 % 81 % 1011,7 hPa 0,0 l/m 4,2 km/h (1 Bft) O-NO 60 0 min
17.08.2018 00:55 21,1 C 18,8 C 10,8 C 61 % 81 % 1011,7 hPa 0,0 l/m 6,1 km/h (2 Bft) S-SW 205 0 min
17.08.2018 01:00 21,1 C 18,8 C 10,8 C 61 % 81 % 1011,7 hPa 0,0 l/m 4,8 km/h (1 Bft) O-SO 120 0 min
17.08.2018 01:05 21,1 C 18,8 C 10,8 C 61 % 81 % 1011,7 hPa 0,0 l/m 6,1 km/h (2 Bft) N-NO 20 0 min
17.08.2018 01:10 21,1 C 18,8 C 10,8 C 61 % 81 % 1011,7 hPa 0,0 l/m 10,9 km/h (2 Bft) NO 55 0 min
17.08.2018 01:15 21,4 C 18,8 C 10,8 C 59 % 81 % 1011,7 hPa 0,0 l/m 13,9 km/h (3 Bft) S-SO 150 0 min
17.08.2018 01:20 21,4 C 18,8 C 10,8 C 59 % 81 % 1011,7 hPa 0,0 l/m 10,3 km/h (2 Bft) O-NO 70 0 min
17.08.2018 01:25 21,4 C 18,8 C 10,8 C 59 % 81 % 1010,7 hPa 0,0 l/m 12,7 km/h (3 Bft) O 85 0 min
17.08.2018 01:30 21,2 C 18,8 C 10,8 C 59 % 81 % 1010,7 hPa 0,0 l/m 13,9 km/h (3 Bft) O 85 0 min
17.08.2018 01:35 21,0 C 18,8 C 10,8 C 60 % 81 % 1010,7 hPa 0,0 l/m 7,3 km/h (2 Bft) SO 125 0 min
17.08.2018 01:40 20,9 C 18,8 C 10,8 C 60 % 81 % 1011,7 hPa 0,0 l/m 10,3 km/h (2 Bft) SO 135 0 min
17.08.2018 01:45 20,8 C 18,8 C 10,8 C 61 % 81 % 1011,7 hPa 0,0 l/m 7,3 km/h (2 Bft) O-SO 115 0 min
17.08.2018 01:50 20,7 C 18,8 C 10,8 C 61 % 81 % 1011,7 hPa 0,0 l/m 7,3 km/h (2 Bft) S-SO 155 0 min
17.08.2018 01:55 20,7 C 18,8 C 10,8 C 61 % 81 % 1011,7 hPa 0,0 l/m 9,1 km/h (2 Bft) O-SO 120 0 min
17.08.2018 02:00 20,6 C 18,8 C 10,8 C 62 % 81 % 1011,7 hPa 0,0 l/m 7,3 km/h (2 Bft) O-SO 115 0 min
17.08.2018 02:05 20,6 C 18,8 C 10,8 C 62 % 81 % 1011,7 hPa 0,0 l/m 11,5 km/h (2 Bft) SO 140 0 min
17.08.2018 02:10 20,5 C 18,8 C 10,8 C 62 % 81 % 1010,7 hPa 0,0 l/m 7,9 km/h (2 Bft) O 95 0 min
17.08.2018 02:15 20,5 C 18,8 C 10,8 C 62 % 81 % 1010,7 hPa 0,0 l/m 12,7 km/h (3 Bft) O 100 0 min
17.08.2018 02:20 20,5 C 18,8 C 10,8 C 62 % 81 % 1010,7 hPa 0,0 l/m 10,9 km/h (2 Bft) O-SO 105 0 min
17.08.2018 02:25 20,4 C 18,8 C 10,8 C 62 % 81 % 1010,7 hPa 0,0 l/m 7,3 km/h (2 Bft) N 0 0 min
17.08.2018 02:30 20,4 C 18,8 C 10,8 C 62 % 81 % 1010,7 hPa 0,0 l/m 4,8 km/h (1 Bft) NO 35 0 min
17.08.2018 02:35 20,4 C 18,8 C 10,8 C 63 % 81 % 1010,7 hPa 0,0 l/m 3,6 km/h (1 Bft) O 100 0 min
17.08.2018 02:40 20,4 C 18,8 C 10,8 C 63 % 81 % 1010,7 hPa 0,0 l/m 3,6 km/h (1 Bft) SO 145 0 min
17.08.2018 02:45 20,4 C 18,8 C 10,8 C 63 % 81 % 1010,7 hPa 0,0 l/m 6,1 km/h (2 Bft) N-NO 20 0 min
17.08.2018 02:50 20,6 C 18,8 C 10,8 C 63 % 81 % 1010,7 hPa 0,0 l/m 10,9 km/h (2 Bft) N-NW 345 0 min
17.08.2018 02:55 20,4 C 18,8 C 10,8 C 64 % 81 % 1010,7 hPa 0,0 l/m 6,1 km/h (2 Bft) N 5 0 min
17.08.2018 03:00 20,4 C 18,8 C 10,8 C 63 % 81 % 1010,7 hPa 0,0 l/m 8,5 km/h (2 Bft) W-NW 290 0 min
17.08.2018 03:05 20,5 C 18,8 C 10,8 C 63 % 81 % 1010,7 hPa 0,0 l/m 6,7 km/h (2 Bft) W-NW 290 0 min
17.08.2018 03:10 20,4 C 18,8 C 10,8 C 64 % 81 % 1011,7 hPa 0,0 l/m 9,7 km/h (2 Bft) W-NW 295 0 min
17.08.2018 03:15 19,9 C 18,8 C 10,8 C 66 % 81 % 1011,7 hPa 0,0 l/m 13,3 km/h (3 Bft) NW 305 0 min
17.08.2018 03:20 19,7 C 18,8 C 10,8 C 67 % 81 % 1011,7 hPa 0,0 l/m 17,6 km/h (3 Bft) W 270 0 min
17.08.2018 03:25 19,4 C 18,8 C 10,8 C 68 % 81 % 1011,7 hPa 0,0 l/m 22,4 km/h (4 Bft) NW 305 0 min
17.08.2018 03:30 19,2 C 18,8 C 10,8 C 69 % 81 % 1011,7 hPa 0,0 l/m 18,2 km/h (3 Bft) W-NW 295 0 min
17.08.2018 03:35 18,9 C 18,8 C 10,8 C 70 % 81 % 1011,7 hPa 0,0 l/m 23,6 km/h (4 Bft) N 355 0 min
17.08.2018 03:40 18,8 C 18,8 C 10,8 C 71 % 81 % 1012,7 hPa 0,0 l/m 20,0 km/h (4 Bft) S-SW 195 0 min
17.08.2018 03:45 18,6 C 18,8 C 10,8 C 73 % 81 % 1012,7 hPa 0,0 l/m 20,6 km/h (4 Bft) NW 315 0 min
17.08.2018 03:50 18,5 C 18,8 C 10,8 C 73 % 81 % 1012,7 hPa 0,0 l/m 16,9 km/h (3 Bft) W 280 0 min
17.08.2018 03:55 18,4 C 18,8 C 10,8 C 74 % 81 % 1012,7 hPa 0,0 l/m 13,3 km/h (3 Bft) O-NO 65 0 min
17.08.2018 04:00 18,4 C 18,8 C 10,8 C 74 % 81 % 1012,7 hPa 0,0 l/m 10,3 km/h (2 Bft) N-NW 345 0 min
17.08.2018 04:05 18,3 C 18,8 C 10,8 C 74 % 81 % 1012,7 hPa 0,0 l/m 17,6 km/h (3 Bft) N 350 0 min
17.08.2018 04:10 18,3 C 18,8 C 10,8 C 74 % 81 % 1011,7 hPa 0,0 l/m 13,9 km/h (3 Bft) N-NO 20 0 min
17.08.2018 04:15 18,4 C 18,8 C 10,8 C 73 % 81 % 1011,7 hPa 0,0 l/m 18,8 km/h (3 Bft) N 355 0 min
17.08.2018 04:20 18,4 C 18,8 C 10,8 C 73 % 81 % 1011,7 hPa 0,0 l/m 16,9 km/h (3 Bft) SW 225 0 min
17.08.2018 04:25 18,5 C 18,8 C 10,8 C 72 % 81 % 1013,7 hPa 0,0 l/m 13,3 km/h (3 Bft) N 0 0 min
17.08.2018 04:30 18,7 C 18,8 C 10,8 C 72 % 81 % 1013,7 hPa 0,0 l/m 15,1 km/h (3 Bft) N 355 0 min
17.08.2018 04:35 18,7 C 18,8 C 10,8 C 71 % 81 % 1013,7 hPa 0,0 l/m 10,3 km/h (2 Bft) NW 305 0 min
17.08.2018 04:40 18,7 C 18,8 C 10,8 C 71 % 81 % 1012,7 hPa 0,0 l/m 26,7 km/h (4 Bft) N-NO 20 0 min
17.08.2018 04:45 18,7 C 18,8 C 10,8 C 70 % 81 % 1012,7 hPa 0,0 l/m 21,8 km/h (4 Bft) N 0 0 min
17.08.2018 04:50 18,7 C 18,8 C 10,8 C 70 % 81 % 1012,7 hPa 0,0 l/m 15,7 km/h (3 Bft) N 5 0 min
17.08.2018 04:55 18,7 C 18,8 C 10,8 C 71 % 81 % 1013,7 hPa 0,0 l/m 11,5 km/h (2 Bft) NO 45 0 min
17.08.2018 05:00 18,7 C 18,8 C 10,8 C 70 % 81 % 1013,7 hPa 0,0 l/m 13,9 km/h (3 Bft) NO 50 0 min
17.08.2018 05:05 18,7 C 18,8 C 10,8 C 70 % 81 % 1013,7 hPa 0,0 l/m 15,7 km/h (3 Bft) N 350 0 min
17.08.2018 05:10 18,7 C 18,8 C 10,8 C 71 % 81 % 1012,7 hPa 0,0 l/m 20,6 km/h (4 Bft) N-NO 25 0 min
17.08.2018 05:15 18,6 C 18,8 C 10,8 C 71 % 81 % 1012,7 hPa 0,0 l/m 17,6 km/h (3 Bft) NO 35 0 min
17.08.2018 05:20 18,7 C 18,8 C 10,8 C 70 % 81 % 1012,7 hPa 0,0 l/m 21,2 km/h (4 Bft) N-NO 15 0 min
17.08.2018 05:25 18,6 C 18,8 C 10,8 C 71 % 81 % 1012,7 hPa 0,0 l/m 13,3 km/h (3 Bft) N-NO 25 0 min
17.08.2018 05:30 18,6 C 18,8 C 10,8 C 71 % 81 % 1012,7 hPa 0,0 l/m 14,5 km/h (3 Bft) O-NO 60 0 min
17.08.2018 05:35 18,5 C 18,8 C 10,8 C 72 % 81 % 1012,7 hPa 0,0 l/m 13,9 km/h (3 Bft) NW 325 0 min
17.08.2018 05:40 18,4 C 18,8 C 10,8 C 73 % 81 % 1012,7 hPa 0,0 l/m 13,3 km/h (3 Bft) NO 35 0 min
17.08.2018 05:45 18,4 C 18,8 C 10,8 C 73 % 81 % 1012,7 hPa 0,0 l/m 15,1 km/h (3 Bft) O-NO 70 0 min
17.08.2018 05:50 18,3 C 18,8 C 10,8 C 73 % 81 % 1012,7 hPa 0,0 l/m 17,6 km/h (3 Bft) N-NO 30 0 min
17.08.2018 05:55 18,2 C 18,8 C 10,8 C 74 % 81 % 1011,7 hPa 0,0 l/m 20,0 km/h (4 Bft) NO 40 0 min
17.08.2018 06:00 18,2 C 18,8 C 10,8 C 74 % 81 % 1011,7 hPa 0,0 l/m 13,9 km/h (3 Bft) N-NO 20 0 min
17.08.2018 06:05 18,1 C 18,8 C 10,8 C 74 % 81 % 1011,7 hPa 0,0 l/m 18,8 km/h (3 Bft) N 355 0 min
17.08.2018 06:10 18,1 C 18,8 C 10,8 C 74 % 81 % 1012,7 hPa 0,0 l/m 11,5 km/h (2 Bft) W-NW 300 0 min
17.08.2018 06:15 18,0 C 18,8 C 10,8 C 75 % 81 % 1012,7 hPa 0,0 l/m 7,3 km/h (2 Bft) O 80 0 min
17.08.2018 06:20 18,0 C 18,8 C 10,8 C 75 % 81 % 1012,7 hPa 0,0 l/m 7,9 km/h (2 Bft) NW 305 0 min
17.08.2018 06:25 18,0 C 18,8 C 10,8 C 75 % 81 % 1012,7 hPa 0,0 l/m 7,3 km/h (2 Bft) NO 50 0 min
17.08.2018 06:30 18,1 C 18,8 C 10,8 C 75 % 81 % 1012,7 hPa 0,0 l/m 4,8 km/h (1 Bft) NW 320 0 min
17.08.2018 06:35 18,2 C 18,8 C 10,8 C 74 % 81 % 1012,7 hPa 0,0 l/m 19,4 km/h (3 Bft) W-NW 300 0 min
17.08.2018 06:40 18,1 C 18,8 C 10,8 C 74 % 81 % 1013,7 hPa 0,0 l/m 20,0 km/h (4 Bft) W-NW 290 0 min
17.08.2018 06:45 18,1 C 18,8 C 10,8 C 75 % 81 % 1013,7 hPa 0,0 l/m 7,3 km/h (2 Bft) NW 310 0 min
17.08.2018 06:50 17,9 C 18,8 C 10,8 C 75 % 81 % 1013,7 hPa 0,3 l/m 12,7 km/h (3 Bft) W-NW 300 0 min
17.08.2018 06:55 17,7 C 18,8 C 10,8 C 76 % 81 % 1013,7 hPa 0,0 l/m 15,1 km/h (3 Bft) NO 35 0 min
17.08.2018 07:00 17,5 C 18,8 C 10,8 C 77 % 81 % 1013,7 hPa 0,6 l/m 13,3 km/h (3 Bft) NO 55 0 min
17.08.2018 07:05 17,2 C 18,8 C 10,8 C 79 % 81 % 1013,7 hPa 1,5 l/m 10,3 km/h (2 Bft) S 175 0 min
17.08.2018 07:10 16,9 C 18,8 C 10,8 C 81 % 81 % 1013,7 hPa 1,5 l/m 8,5 km/h (2 Bft) N 355 0 min
17.08.2018 07:15 16,7 C 18,8 C 10,8 C 82 % 81 % 1013,7 hPa 0,6 l/m 13,3 km/h (3 Bft) N 10 0 min
17.08.2018 07:20 16,6 C 18,8 C 10,8 C 84 % 81 % 1013,7 hPa 0,3 l/m 14,5 km/h (3 Bft) N 5 0 min
17.08.2018 07:25 16,6 C 18,8 C 10,8 C 84 % 81 % 1013,7 hPa 0,3 l/m 11,5 km/h (2 Bft) N-NO 20 0 min
17.08.2018 07:30 16,6 C 18,8 C 10,8 C 85 % 81 % 1013,7 hPa 0,0 l/m 6,1 km/h (2 Bft) W-NW 300 0 min
17.08.2018 07:35 16,6 C 18,8 C 10,8 C 85 % 81 % 1013,7 hPa 0,0 l/m 3,6 km/h (1 Bft) NO 35 0 min
17.08.2018 07:40 16,7 C 18,8 C 10,8 C 85 % 81 % 1013,7 hPa 0,0 l/m 3,6 km/h (1 Bft) NW 325 0 min
17.08.2018 07:45 16,7 C 18,8 C 10,8 C 85 % 81 % 1013,7 hPa 0,0 l/m 1,8 km/h (1 Bft) N-NW 340 0 min
17.08.2018 07:50 16,7 C 18,8 C 10,8 C 85 % 81 % 1013,7 hPa 0,0 l/m 3,6 km/h (1 Bft) N-NW 330 0 min
17.08.2018 07:55 16,6 C 18,8 C 10,8 C 86 % 81 % 1013,7 hPa 0,0 l/m 6,1 km/h (2 Bft) N 5 0 min
17.08.2018 08:00 16,7 C 18,8 C 10,8 C 86 % 81 % 1013,7 hPa 0,6 l/m 3,0 km/h (1 Bft) O-SO 120 0 min
17.08.2018 08:05 16,6 C 18,8 C 10,8 C 86 % 81 % 1013,7 hPa 0,0 l/m 6,7 km/h (2 Bft) O-SO 115 0 min
17.08.2018 08:10 16,6 C 18,8 C 10,8 C 86 % 81 % 1013,7 hPa 0,6 l/m 2,4 km/h (1 Bft) NO 55 0 min
17.08.2018 08:15 16,5 C 18,8 C 10,8 C 86 % 81 % 1013,7 hPa 0,6 l/m 5,4 km/h (2 Bft) O-SO 110 0 min
17.08.2018 08:20 16,5 C 18,8 C 10,8 C 87 % 81 % 1013,7 hPa 0,6 l/m 6,1 km/h (2 Bft) O-SO 110 0 min
17.08.2018 08:25 16,6 C 18,8 C 10,8 C 87 % 81 % 1013,7 hPa 0,6 l/m 4,2 km/h (1 Bft) O 85 0 min
17.08.2018 08:30 16,5 C 18,8 C 10,8 C 87 % 81 % 1013,7 hPa 0,6 l/m 8,5 km/h (2 Bft) S 170 0 min
17.08.2018 08:35 16,5 C 18,8 C 10,8 C 87 % 81 % 1013,7 hPa 0,6 l/m 6,1 km/h (2 Bft) S-SO 165 0 min
17.08.2018 08:40 16,5 C 18,8 C 10,8 C 87 % 81 % 1013,7 hPa 0,9 l/m 6,1 km/h (2 Bft) N-NO 15 0 min
17.08.2018 08:45 16,4 C 18,8 C 10,8 C 87 % 81 % 1013,7 hPa 0,9 l/m 9,1 km/h (2 Bft) S 170 0 min
17.08.2018 08:50 16,4 C 18,8 C 10,8 C 87 % 81 % 1013,7 hPa 0,3 l/m 7,3 km/h (2 Bft) SO 140 0 min
17.08.2018 08:55 16,4 C 18,8 C 10,8 C 88 % 81 % 1014,7 hPa 0,3 l/m 8,5 km/h (2 Bft) N-NO 30 0 min
17.08.2018 09:00 16,5 C 18,8 C 10,8 C 88 % 81 % 1014,7 hPa 0,0 l/m 3,6 km/h (1 Bft) S-SO 165 0 min
17.08.2018 09:05 16,5 C 18,8 C 10,8 C 88 % 81 % 1014,7 hPa 0,0 l/m 10,9 km/h (2 Bft) O-SO 110 0 min
17.08.2018 09:10 16,5 C 18,8 C 10,8 C 88 % 81 % 1013,7 hPa 0,0 l/m 7,9 km/h (2 Bft) O-SO 110 0 min
17.08.2018 09:15 16,6 C 18,8 C 10,8 C 88 % 81 % 1013,7 hPa 0,0 l/m 7,9 km/h (2 Bft) S 190 0 min
17.08.2018 09:20 16,8 C 18,8 C 10,8 C 88 % 81 % 1013,7 hPa 0,0 l/m 1,8 km/h (1 Bft) N 0 0 min
17.08.2018 09:25 16,9 C 18,8 C 10,8 C 88 % 81 % 1014,7 hPa 0,0 l/m 1,8 km/h (1 Bft) N 350 0 min
17.08.2018 09:30 16,9 C 18,8 C 10,8 C 88 % 81 % 1014,7 hPa 0,0 l/m 1,8 km/h (1 Bft) N 350 0 min
17.08.2018 09:35 16,9 C 18,8 C 10,8 C 87 % 81 % 1014,7 hPa 0,0 l/m 1,8 km/h (1 Bft) W 275 0 min
17.08.2018 09:40 17,0 C 18,8 C 10,8 C 87 % 81 % 1013,7 hPa 0,0 l/m 1,8 km/h (1 Bft) W-NW 290 0 min
17.08.2018 09:45 17,0 C 18,8 C 10,8 C 87 % 81 % 1013,7 hPa 0,0 l/m 4,2 km/h (1 Bft) NW 325 0 min
17.08.2018 09:50 17,2 C 18,8 C 10,8 C 87 % 81 % 1013,7 hPa 0,0 l/m 2,4 km/h (1 Bft) N-NW 330 0 min
17.08.2018 09:55 17,3 C 18,8 C 10,8 C 86 % 81 % 1014,7 hPa 0,0 l/m 6,1 km/h (2 Bft) W-NW 285 0 min
17.08.2018 10:00 17,3 C 18,8 C 10,8 C 86 % 81 % 1014,7 hPa 0,0 l/m 6,7 km/h (2 Bft) NW 320 0 min
17.08.2018 10:05 17,2 C 18,8 C 10,8 C 86 % 81 % 1014,7 hPa 0,0 l/m 7,3 km/h (2 Bft) NW 315 0 min
17.08.2018 10:10 17,2 C 18,8 C 10,8 C 86 % 81 % 1014,7 hPa 0,0 l/m 4,2 km/h (1 Bft) W-NW 290 0 min
17.08.2018 10:15 17,2 C 18,8 C 10,8 C 86 % 81 % 1014,7 hPa 0,0 l/m 6,1 km/h (2 Bft) W 270 0 min
17.08.2018 10:20 17,2 C 18,8 C 10,8 C 86 % 81 % 1014,7 hPa 0,0 l/m 6,1 km/h (2 Bft) W 275 0 min
17.08.2018 10:25 17,2 C 18,8 C 10,8 C 86 % 81 % 1014,7 hPa 0,0 l/m 6,1 km/h (2 Bft) SW 225 0 min
17.08.2018 10:30 17,2 C 18,8 C 10,8 C 86 % 81 % 1014,7 hPa 0,0 l/m 6,7 km/h (2 Bft) W 260 0 min
17.08.2018 10:35 17,2 C 18,8 C 10,8 C 86 % 81 % 1014,7 hPa 0,0 l/m 6,1 km/h (2 Bft) N-NO 25 0 min
17.08.2018 10:40 17,1 C 18,8 C 10,8 C 86 % 81 % 1014,7 hPa 0,0 l/m 5,4 km/h (2 Bft) W-SW 255 0 min
17.08.2018 10:45 17,3 C 18,8 C 10,8 C 86 % 81 % 1014,7 hPa 0,0 l/m 6,1 km/h (2 Bft) NW 315 0 min
17.08.2018 10:50 17,3 C 18,8 C 10,8 C 85 % 81 % 1014,7 hPa 0,0 l/m 6,1 km/h (2 Bft) NO 35 0 min
17.08.2018 10:55 17,3 C 18,8 C 10,8 C 85 % 81 % 1014,7 hPa 0,0 l/m 9,1 km/h (2 Bft) NO 35 0 min
17.08.2018 11:00 17,4 C 18,8 C 10,8 C 85 % 81 % 1014,7 hPa 0,0 l/m 7,9 km/h (2 Bft) N-NW 345 0 min
17.08.2018 11:05 17,4 C 18,8 C 10,8 C 84 % 81 % 1014,7 hPa 0,0 l/m 6,7 km/h (2 Bft) NO 35 0 min
17.08.2018 11:10 17,5 C 18,8 C 10,8 C 84 % 81 % 1015,7 hPa 0,0 l/m 8,5 km/h (2 Bft) N-NO 25 0 min
17.08.2018 11:15 17,4 C 18,8 C 10,8 C 83 % 81 % 1015,7 hPa 0,0 l/m 7,3 km/h (2 Bft) N 350 0 min
17.08.2018 11:20 17,6 C 18,8 C 10,8 C 83 % 81 % 1015,7 hPa 0,0 l/m 10,9 km/h (2 Bft) N-NW 330 0 min
17.08.2018 11:25 17,8 C 18,8 C 10,8 C 83 % 81 % 1015,7 hPa 0,0 l/m 7,9 km/h (2 Bft) NO 55 0 min
17.08.2018 11:30 17,8 C 18,8 C 10,8 C 83 % 81 % 1015,7 hPa 0,0 l/m 9,7 km/h (2 Bft) N-NO 15 0 min
17.08.2018 11:35 17,8 C 18,8 C 10,8 C 83 % 81 % 1015,7 hPa 0,0 l/m 7,9 km/h (2 Bft) NO 50 0 min
17.08.2018 11:40 17,9 C 18,8 C 10,8 C 82 % 81 % 1015,7 hPa 0,0 l/m 5,4 km/h (2 Bft) N 10 0 min
17.08.2018 11:45 18,1 C 18,8 C 10,8 C 82 % 81 % 1015,7 hPa 0,0 l/m 6,7 km/h (2 Bft) N-NO 25 0 min
17.08.2018 11:50 18,1 C 18,8 C 10,8 C 81 % 81 % 1015,7 hPa 0,0 l/m 9,1 km/h (2 Bft) N-NO 20 0 min
17.08.2018 11:55 18,3 C 18,8 C 10,8 C 80 % 81 % 1015,7 hPa 0,0 l/m 9,1 km/h (2 Bft) NW 320 0 min
17.08.2018 12:00 18,2 C 18,8 C 10,8 C 80 % 81 % 1015,7 hPa 0,0 l/m 10,3 km/h (2 Bft) N-NO 20 0 min
17.08.2018 12:05 18,3 C 18,8 C 10,8 C 80 % 81 % 1015,7 hPa 0,0 l/m 8,5 km/h (2 Bft) N 0 0 min
17.08.2018 12:10 18,5 C 18,8 C 10,8 C 80 % 81 % 1015,7 hPa 0,0 l/m 4,2 km/h (1 Bft) W 275 0 min
17.08.2018 12:15 18,3 C 18,8 C 10,8 C 79 % 81 % 1015,7 hPa 0,0 l/m 10,3 km/h (2 Bft) W 280 0 min
17.08.2018 12:20 18,3 C 18,8 C 10,8 C 80 % 81 % 1015,7 hPa 0,0 l/m 15,1 km/h (3 Bft) W 270 0 min
17.08.2018 12:25 17,9 C 18,8 C 10,8 C 80 % 81 % 1015,7 hPa 0,0 l/m 22,4 km/h (4 Bft) W-NW 295 0 min
17.08.2018 12:30 17,8 C 18,8 C 10,8 C 80 % 81 % 1015,7 hPa 0,0 l/m 18,2 km/h (3 Bft) N 5 0 min
17.08.2018 12:35 17,8 C 18,8 C 10,8 C 80 % 81 % 1015,7 hPa 0,0 l/m 12,7 km/h (3 Bft) NW 305 0 min
17.08.2018 12:40 17,7 C 18,8 C 10,8 C 81 % 81 % 1015,7 hPa 0,0 l/m 13,3 km/h (3 Bft) W-SW 250 0 min
17.08.2018 12:45 17,8 C 18,8 C 10,8 C 81 % 81 % 1015,7 hPa 0,0 l/m 9,7 km/h (2 Bft) W-NW 295 0 min
17.08.2018 12:50 17,8 C 18,8 C 10,8 C 81 % 81 % 1015,7 hPa 0,0 l/m 8,5 km/h (2 Bft) W 270 0 min
17.08.2018 12:55 17,7 C 18,8 C 10,8 C 81 % 81 % 1016,7 hPa 0,0 l/m 13,3 km/h (3 Bft) NO 45 0 min
17.08.2018 13:00 17,8 C 18,8 C 10,8 C 79 % 81 % 1016,7 hPa 0,0 l/m 11,5 km/h (2 Bft) N-NO 15 0 min
17.08.2018 13:05 17,8 C 18,8 C 10,8 C 79 % 81 % 1016,7 hPa 0,0 l/m 15,1 km/h (3 Bft) N 0 0 min
17.08.2018 13:10 18,2 C 18,8 C 10,8 C 78 % 81 % 1016,7 hPa 0,0 l/m 5,4 km/h (2 Bft) NO 55 0 min
17.08.2018 13:15 18,3 C 18,8 C 10,8 C 77 % 81 % 1016,7 hPa 0,0 l/m 10,3 km/h (2 Bft) S-SW 195 0 min
17.08.2018 13:20 18,7 C 18,8 C 10,8 C 76 % 81 % 1016,7 hPa 0,0 l/m 8,5 km/h (2 Bft) N-NO 25 0 min
17.08.2018 13:25 18,9 C 18,8 C 10,8 C 76 % 81 % 1016,7 hPa 0,0 l/m 10,9 km/h (2 Bft) N-NW 330 1 min
17.08.2018 13:30 19,0 C 18,8 C 10,8 C 72 % 81 % 1016,7 hPa 0,0 l/m 13,3 km/h (3 Bft) N-NO 20 7 min
17.08.2018 13:35 19,4 C 18,8 C 10,8 C 72 % 81 % 1016,7 hPa 0,0 l/m 15,7 km/h (3 Bft) N-NO 30 5 min
17.08.2018 13:40 19,4 C 18,8 C 10,8 C 72 % 81 % 1015,7 hPa 0,0 l/m 14,5 km/h (3 Bft) N 355 5 min
17.08.2018 13:45 19,6 C 18,8 C 10,8 C 71 % 81 % 1015,7 hPa 0,0 l/m 7,9 km/h (2 Bft) W-SW 255 3 min
17.08.2018 13:50 19,9 C 18,8 C 10,8 C 70 % 81 % 1015,7 hPa 0,0 l/m 11,5 km/h (2 Bft) NW 325 7 min
17.08.2018 13:55 19,9 C 18,8 C 10,8 C 70 % 81 % 1015,7 hPa 0,0 l/m 12,7 km/h (3 Bft) W 275 3 min
17.08.2018 14:00 20,2 C 18,8 C 10,8 C 69 % 81 % 1015,7 hPa 0,0 l/m 11,5 km/h (2 Bft) W-NW 285 3 min
17.08.2018 14:05 20,5 C 18,8 C 10,8 C 69 % 81 % 1015,7 hPa 0,0 l/m 16,9 km/h (3 Bft) NW 310 4 min
17.08.2018 14:10 20,8 C 18,8 C 10,8 C 66 % 81 % 1015,7 hPa 0,0 l/m 11,5 km/h (2 Bft) N-NO 30 6 min
17.08.2018 14:15 20,7 C 18,8 C 10,8 C 65 % 81 % 1015,7 hPa 0,0 l/m 11,5 km/h (2 Bft) NW 305 4 min
17.08.2018 14:20 20,7 C 18,8 C 10,8 C 66 % 81 % 1015,7 hPa 0,0 l/m 12,1 km/h (2 Bft) N-NW 330 6 min
17.08.2018 14:25 20,7 C 18,8 C 10,8 C 66 % 81 % 1016,7 hPa 0,0 l/m 13,9 km/h (3 Bft) W-NW 300 5 min
17.08.2018 14:30 20,6 C 18,8 C 10,8 C 65 % 81 % 1016,7 hPa 0,0 l/m 15,7 km/h (3 Bft) W 270 5 min
17.08.2018 14:35 20,9 C 18,8 C 10,8 C 64 % 81 % 1016,7 hPa 0,0 l/m 16,9 km/h (3 Bft) W-NW 300 5 min
17.08.2018 14:40 21,0 C 18,8 C 10,8 C 58 % 81 % 1016,7 hPa 0,0 l/m 16,3 km/h (3 Bft) N-NW 330 5 min
17.08.2018 14:45 20,9 C 18,8 C 10,8 C 58 % 81 % 1016,7 hPa 0,0 l/m 13,9 km/h (3 Bft) W-NW 290 5 min
17.08.2018 14:50 21,0 C 18,8 C 10,8 C 59 % 81 % 1016,7 hPa 0,0 l/m 16,3 km/h (3 Bft) NW 310 3 min
17.08.2018 14:55 21,4 C 18,8 C 10,8 C 57 % 81 % 1016,7 hPa 0,0 l/m 13,3 km/h (3 Bft) W 270 2 min
17.08.2018 15:00 21,6 C 18,8 C 10,8 C 56 % 81 % 1016,7 hPa 0,0 l/m 17,6 km/h (3 Bft) O-SO 115 3 min
17.08.2018 15:05 22,4 C 18,8 C 10,8 C 55 % 81 % 1016,7 hPa 0,0 l/m 13,3 km/h (3 Bft) N 10 5 min
17.08.2018 15:10 22,0 C 18,8 C 10,8 C 55 % 81 % 1016,7 hPa 0,0 l/m 11,5 km/h (2 Bft) N 350 1 min
17.08.2018 15:15 21,7 C 18,8 C 10,8 C 55 % 81 % 1016,7 hPa 0,0 l/m 12,7 km/h (3 Bft) NO 40 3 min
17.08.2018 15:20 21,7 C 18,8 C 10,8 C 54 % 81 % 1016,7 hPa 0,0 l/m 6,1 km/h (2 Bft) N 350 3 min
17.08.2018 15:25 22,1 C 18,8 C 10,8 C 53 % 81 % 1016,7 hPa 0,0 l/m 8,5 km/h (2 Bft) W-SW 255 5 min
17.08.2018 15:30 22,4 C 18,8 C 10,8 C 53 % 81 % 1016,7 hPa 0,0 l/m 10,9 km/h (2 Bft) W 270 4 min
17.08.2018 15:35 22,0 C 18,8 C 10,8 C 52 % 81 % 1016,7 hPa 0,0 l/m 13,3 km/h (3 Bft) NO 50 1 min
17.08.2018 15:40 22,3 C 18,8 C 10,8 C 52 % 81 % 1015,7 hPa 0,0 l/m 7,3 km/h (2 Bft) N 5 3 min
17.08.2018 15:45 22,5 C 18,8 C 10,8 C 50 % 81 % 1015,7 hPa 0,0 l/m 9,7 km/h (2 Bft) W 270 5 min
17.08.2018 15:50 22,6 C 18,8 C 10,8 C 50 % 81 % 1015,7 hPa 0,0 l/m 14,5 km/h (3 Bft) N-NO 15 3 min
17.08.2018 15:55 22,7 C 18,8 C 10,8 C 51 % 81 % 1016,7 hPa 0,0 l/m 16,9 km/h (3 Bft) W 280 4 min
17.08.2018 16:00 23,0 C 18,8 C 10,8 C 50 % 81 % 1016,7 hPa 0,0 l/m 17,6 km/h (3 Bft) N 0 5 min
17.08.2018 16:05 22,9 C 18,8 C 10,8 C 48 % 81 % 1016,7 hPa 0,0 l/m 18,2 km/h (3 Bft) W 265 2 min
17.08.2018 16:10 22,5 C 18,8 C 10,8 C 48 % 81 % 1015,7 hPa 0,0 l/m 23,0 km/h (4 Bft) W-NW 290 4 min
17.08.2018 16:15 23,1 C 18,8 C 10,8 C 48 % 81 % 1015,7 hPa 0,0 l/m 15,7 km/h (3 Bft) N 350 4 min
17.08.2018 16:20 23,3 C 18,8 C 10,8 C 47 % 81 % 1015,7 hPa 0,0 l/m 13,3 km/h (3 Bft) W-NW 290 6 min
17.08.2018 16:25 23,4 C 18,8 C 10,8 C 47 % 81 % 1015,7 hPa 0,0 l/m 11,5 km/h (2 Bft) N-NO 25 4 min
17.08.2018 16:30 23,3 C 18,8 C 10,8 C 45 % 81 % 1015,7 hPa 0,0 l/m 25,4 km/h (4 Bft) N 0 6 min
17.08.2018 16:35 23,7 C 18,8 C 10,8 C 45 % 81 % 1015,7 hPa 0,0 l/m 13,9 km/h (3 Bft) W-NW 285 5 min
17.08.2018 16:40 23,3 C 18,8 C 10,8 C 44 % 81 % 1015,7 hPa 0,0 l/m 18,8 km/h (3 Bft) N 350 4 min
17.08.2018 16:45 23,7 C 18,8 C 10,8 C 44 % 81 % 1015,7 hPa 0,0 l/m 14,5 km/h (3 Bft) W-SW 245 5 min
17.08.2018 16:50 23,4 C 18,8 C 10,8 C 44 % 81 % 1015,7 hPa 0,0 l/m 20,0 km/h (4 Bft) W-NW 290 5 min
17.08.2018 16:55 23,6 C 18,8 C 10,8 C 43 % 81 % 1015,7 hPa 0,0 l/m 14,5 km/h (3 Bft) NW 325 3 min
17.08.2018 17:00 23,9 C 18,8 C 10,8 C 42 % 81 % 1015,7 hPa 0,0 l/m 13,9 km/h (3 Bft) N 5 7 min
17.08.2018 17:05 23,7 C 18,8 C 10,8 C 43 % 81 % 1015,7 hPa 0,0 l/m 12,7 km/h (3 Bft) O 85 3 min
17.08.2018 17:10 23,5 C 18,8 C 10,8 C 42 % 81 % 1015,7 hPa 0,0 l/m 15,7 km/h (3 Bft) W-NW 285 5 min
17.08.2018 17:15 23,2 C 18,8 C 10,8 C 42 % 81 % 1015,7 hPa 0,0 l/m 13,3 km/h (3 Bft) SW 225 0 min
17.08.2018 17:20 23,3 C 18,8 C 10,8 C 43 % 81 % 1015,7 hPa 0,0 l/m 14,5 km/h (3 Bft) W-NW 285 3 min
17.08.2018 17:25 23,3 C 18,8 C 10,8 C 42 % 81 % 1015,7 hPa 0,0 l/m 12,7 km/h (3 Bft) NW 320 3 min
17.08.2018 17:30 23,2 C 18,8 C 10,8 C 42 % 81 % 1015,7 hPa 0,0 l/m 14,5 km/h (3 Bft) NW 310 3 min
17.08.2018 17:35 23,0 C 18,8 C 10,8 C 44 % 81 % 1015,7 hPa 0,0 l/m 16,9 km/h (3 Bft) NW 325 2 min
17.08.2018 17:40 23,4 C 18,8 C 10,8 C 44 % 81 % 1015,7 hPa 0,0 l/m 17,6 km/h (3 Bft) N-NW 335 5 min
17.08.2018 17:45 23,5 C 18,8 C 10,8 C 43 % 81 % 1015,7 hPa 0,0 l/m 15,7 km/h (3 Bft) NW 305 5 min
17.08.2018 17:50 23,8 C 18,8 C 10,8 C 42 % 81 % 1015,7 hPa 0,0 l/m 18,2 km/h (3 Bft) W 280 6 min
17.08.2018 17:55 23,8 C 18,8 C 10,8 C 41 % 81 % 1015,7 hPa 0,0 l/m 23,0 km/h (4 Bft) N-NO 20 5 min
17.08.2018 18:00 23,7 C 18,8 C 10,8 C 40 % 81 % 1015,7 hPa 0,0 l/m 19,4 km/h (3 Bft) NW 315 4 min
17.08.2018 18:05 23,6 C 18,8 C 10,8 C 41 % 81 % 1015,7 hPa 0,0 l/m 14,5 km/h (3 Bft) NW 305 3 min
17.08.2018 18:10 23,8 C 18,8 C 10,8 C 42 % 81 % 1015,7 hPa 0,0 l/m 8,5 km/h (2 Bft) N-NO 20 1 min
17.08.2018 18:15 23,5 C 18,8 C 10,8 C 40 % 81 % 1015,7 hPa 0,0 l/m 4,2 km/h (1 Bft) S 185 1 min
17.08.2018 18:20 23,5 C 18,8 C 10,8 C 41 % 81 % 1015,7 hPa 0,0 l/m 6,7 km/h (2 Bft) W 275 1 min
17.08.2018 18:25 23,7 C 18,8 C 10,8 C 40 % 81 % 1015,7 hPa 0,0 l/m 6,7 km/h (2 Bft) W-NW 300 4 min
17.08.2018 18:30 23,9 C 18,8 C 10,8 C 39 % 81 % 1015,7 hPa 0,0 l/m 9,7 km/h (2 Bft) W-NW 300 4 min
17.08.2018 18:35 23,6 C 18,8 C 10,8 C 40 % 81 % 1015,7 hPa 0,0 l/m 9,7 km/h (2 Bft) O 85 2 min
17.08.2018 18:40 23,2 C 18,8 C 10,8 C 41 % 81 % 1016,7 hPa 0,0 l/m 12,7 km/h (3 Bft) N-NO 20 0 min
17.08.2018 18:45 23,4 C 18,8 C 10,8 C 41 % 81 % 1016,7 hPa 0,0 l/m 12,1 km/h (2 Bft) W-NW 290 5 min
17.08.2018 18:50 23,4 C 18,8 C 10,8 C 41 % 81 % 1016,7 hPa 0,0 l/m 14,5 km/h (3 Bft) NO 45 3 min
17.08.2018 18:55 23,3 C 18,8 C 10,8 C 41 % 81 % 1016,7 hPa 0,0 l/m 14,5 km/h (3 Bft) N 355 5 min
17.08.2018 19:00 23,5 C 18,8 C 10,8 C 40 % 81 % 1016,7 hPa 0,0 l/m 10,9 km/h (2 Bft) W-NW 285 6 min
17.08.2018 19:05 23,5 C 18,8 C 10,8 C 41 % 81 % 1016,7 hPa 0,0 l/m 9,7 km/h (2 Bft) W-NW 300 5 min
17.08.2018 19:10 23,7 C 18,8 C 10,8 C 39 % 81 % 1016,7 hPa 0,0 l/m 4,8 km/h (1 Bft) NO 45 3 min
17.08.2018 19:15 23,5 C 18,8 C 10,8 C 39 % 81 % 1016,7 hPa 0,0 l/m 7,9 km/h (2 Bft) N-NO 15 3 min
17.08.2018 19:20 23,5 C 18,8 C 10,8 C 40 % 81 % 1016,7 hPa 0,0 l/m 8,5 km/h (2 Bft) N-NO 20 4 min
17.08.2018 19:25 23,0 C 18,8 C 10,8 C 40 % 81 % 1016,7 hPa 0,0 l/m 10,9 km/h (2 Bft) O-NO 65 0 min
17.08.2018 19:30 23,0 C 18,8 C 10,8 C 40 % 81 % 1016,7 hPa 0,0 l/m 6,1 km/h (2 Bft) N-NO 20 0 min
17.08.2018 19:35 23,1 C 18,8 C 10,8 C 40 % 81 % 1016,7 hPa 0,0 l/m 5,4 km/h (2 Bft) N-NO 15 0 min
17.08.2018 19:40 23,2 C 18,8 C 10,8 C 40 % 81 % 1016,7 hPa 0,0 l/m 3,6 km/h (1 Bft) W 280 0 min
17.08.2018 19:45 23,2 C 18,8 C 10,8 C 41 % 81 % 1016,7 hPa 0,0 l/m 6,1 km/h (2 Bft) NW 305 0 min
17.08.2018 19:50 23,0 C 18,8 C 10,8 C 42 % 81 % 1016,7 hPa 0,0 l/m 7,3 km/h (2 Bft) W-NW 295 0 min
17.08.2018 19:55 22,8 C 18,8 C 10,8 C 43 % 81 % 1015,7 hPa 0,0 l/m 6,7 km/h (2 Bft) SW 220 0 min
17.08.2018 20:00 22,8 C 18,8 C 10,8 C 43 % 81 % 1015,7 hPa 0,0 l/m 5,4 km/h (2 Bft) W 270 0 min
17.08.2018 20:05 22,4 C 18,8 C 10,8 C 45 % 81 % 1015,7 hPa 0,0 l/m 9,7 km/h (2 Bft) W-NW 300 0 min
17.08.2018 20:10 22,2 C 18,8 C 10,8 C 45 % 81 % 1016,7 hPa 0,0 l/m 8,5 km/h (2 Bft) W-NW 290 0 min
17.08.2018 20:15 22,0 C 18,8 C 10,8 C 46 % 81 % 1016,7 hPa 0,0 l/m 5,4 km/h (2 Bft) NW 320 0 min
17.08.2018 20:20 21,8 C 18,8 C 10,8 C 47 % 81 % 1016,7 hPa 0,0 l/m 7,3 km/h (2 Bft) NW 315 0 min
17.08.2018 20:25 21,4 C 18,8 C 10,8 C 49 % 81 % 1015,7 hPa 0,0 l/m 7,9 km/h (2 Bft) N-NW 330 0 min
17.08.2018 20:30 21,3 C 18,8 C 10,8 C 48 % 81 % 1015,7 hPa 0,0 l/m 5,4 km/h (2 Bft) W-NW 295 0 min
17.08.2018 20:35 21,3 C 18,8 C 10,8 C 48 % 81 % 1015,7 hPa 0,0 l/m 5,4 km/h (2 Bft) W-NW 290 0 min
17.08.2018 20:40 21,1 C 18,8 C 10,8 C 49 % 81 % 1016,7 hPa 0,0 l/m 2,4 km/h (1 Bft) W-NW 295 0 min
17.08.2018 20:45 21,0 C 18,8 C 10,8 C 50 % 81 % 1016,7 hPa 0,0 l/m 3,6 km/h (1 Bft) SW 230 0 min
17.08.2018 20:50 20,7 C 18,8 C 10,8 C 51 % 81 % 1016,7 hPa 0,0 l/m 6,7 km/h (2 Bft) W-NW 290 0 min
17.08.2018 20:55 20,6 C 18,8 C 10,8 C 51 % 81 % 1016,7 hPa 0,0 l/m 0,6 km/h (0 Bft) NW 305 0 min
17.08.2018 21:00 20,5 C 18,8 C 10,8 C 52 % 81 % 1016,7 hPa 0,0 l/m 3,6 km/h (1 Bft) W-NW 285 0 min
17.08.2018 21:05 20,2 C 18,8 C 10,8 C 53 % 81 % 1016,7 hPa 0,0 l/m 3,6 km/h (1 Bft) NW 305 0 min
17.08.2018 21:10 20,0 C 18,8 C 10,8 C 54 % 81 % 1017,7 hPa 0,0 l/m 2,4 km/h (1 Bft) W 280 0 min
17.08.2018 21:15 19,9 C 18,8 C 10,8 C 55 % 81 % 1017,7 hPa 0,0 l/m 4,2 km/h (1 Bft) W 280 0 min
17.08.2018 21:20 19,8 C 18,8 C 10,8 C 55 % 81 % 1017,7 hPa 0,0 l/m 4,8 km/h (1 Bft) W-NW 290 0 min
17.08.2018 21:25 19,7 C 18,8 C 10,8 C 56 % 81 % 1017,7 hPa 0,0 l/m 2,4 km/h (1 Bft) NW 305 0 min
17.08.2018 21:30 19,7 C 18,8 C 10,8 C 56 % 81 % 1017,7 hPa 0,0 l/m 5,4 km/h (2 Bft) NW 325 0 min
17.08.2018 21:35 19,6 C 18,8 C 10,8 C 56 % 81 % 1017,7 hPa 0,0 l/m 4,8 km/h (1 Bft) W 275 0 min
17.08.2018 21:40 19,3 C 18,8 C 10,8 C 58 % 81 % 1017,7 hPa 0,0 l/m 3,6 km/h (1 Bft) W 275 0 min
17.08.2018 21:45 19,1 C 18,8 C 10,8 C 59 % 81 % 1017,7 hPa 0,0 l/m 7,9 km/h (2 Bft) NW 310 0 min
17.08.2018 21:50 19,0 C 18,8 C 10,8 C 59 % 81 % 1017,7 hPa 0,0 l/m 8,5 km/h (2 Bft) NW 320 0 min
17.08.2018 21:55 18,9 C 18,8 C 10,8 C 60 % 81 % 1017,7 hPa 0,0 l/m 5,4 km/h (2 Bft) W 275 0 min
17.08.2018 22:00 18,9 C 18,8 C 10,8 C 60 % 81 % 1017,7 hPa 0,0 l/m 8,5 km/h (2 Bft) NW 320 0 min
17.08.2018 22:05 18,9 C 18,8 C 10,8 C 60 % 81 % 1017,7 hPa 0,0 l/m 11,5 km/h (2 Bft) NW 305 0 min
17.08.2018 22:10 19,3 C 18,8 C 10,8 C 59 % 81 % 1016,7 hPa 0,0 l/m 15,1 km/h (3 Bft) NW 320 0 min
17.08.2018 22:15 19,2 C 18,8 C 10,8 C 59 % 81 % 1016,7 hPa 0,0 l/m 11,5 km/h (2 Bft) NW 305 0 min
17.08.2018 22:20 19,4 C 18,8 C 10,8 C 58 % 81 % 1016,7 hPa 0,0 l/m 14,5 km/h (3 Bft) N-NW 335 0 min
17.08.2018 22:25 19,3 C 18,8 C 10,8 C 58 % 81 % 1017,7 hPa 0,0 l/m 13,9 km/h (3 Bft) W 275 0 min
17.08.2018 22:30 19,1 C 18,8 C 10,8 C 59 % 81 % 1017,7 hPa 0,0 l/m 12,7 km/h (3 Bft) W 265 0 min
17.08.2018 22:35 19,0 C 18,8 C 10,8 C 60 % 81 % 1017,7 hPa 0,0 l/m 13,3 km/h (3 Bft) W 270 0 min
17.08.2018 22:40 19,0 C 18,8 C 10,8 C 59 % 81 % 1017,7 hPa 0,0 l/m 15,7 km/h (3 Bft) NW 325 0 min
17.08.2018 22:45 19,2 C 18,8 C 10,8 C 58 % 81 % 1017,7 hPa 0,0 l/m 18,2 km/h (3 Bft) W 270 0 min
17.08.2018 22:50 19,3 C 18,8 C 10,8 C 57 % 81 % 1017,7 hPa 0,0 l/m 17,6 km/h (3 Bft) N-NW 330 0 min
17.08.2018 22:55 19,3 C 18,8 C 10,8 C 57 % 81 % 1017,7 hPa 0,0 l/m 19,4 km/h (3 Bft) W-NW 290 0 min
17.08.2018 23:00 19,3 C 18,8 C 10,8 C 57 % 81 % 1017,7 hPa 0,0 l/m 15,1 km/h (3 Bft) N-NO 20 0 min
17.08.2018 23:05 19,2 C 18,8 C 10,8 C 57 % 81 % 1017,7 hPa 0,0 l/m 14,5 km/h (3 Bft) W-NW 295 0 min
17.08.2018 23:10 19,0 C 18,8 C 10,8 C 58 % 81 % 1018,7 hPa 0,0 l/m 11,5 km/h (2 Bft) W-NW 290 0 min
17.08.2018 23:15 18,8 C 18,8 C 10,8 C 59 % 81 % 1018,7 hPa 0,0 l/m 9,1 km/h (2 Bft) W-NW 290 0 min
17.08.2018 23:20 18,8 C 18,8 C 10,8 C 59 % 81 % 1018,7 hPa 0,0 l/m 10,9 km/h (2 Bft) W 275 0 min
17.08.2018 23:25 18,9 C 18,8 C 10,8 C 58 % 81 % 1017,7 hPa 0,0 l/m 10,3 km/h (2 Bft) W-NW 290 0 min
17.08.2018 23:30 18,7 C 18,8 C 10,8 C 59 % 81 % 1017,7 hPa 0,0 l/m 9,7 km/h (2 Bft) NW 320 0 min
17.08.2018 23:35 18,6 C 18,8 C 10,8 C 60 % 81 % 1017,7 hPa 0,0 l/m 12,1 km/h (2 Bft) N 10 0 min
17.08.2018 23:40 18,4 C 18,8 C 10,8 C 61 % 81 % 1017,7 hPa 0,0 l/m 8,5 km/h (2 Bft) W-NW 295 0 min
17.08.2018 23:45 18,2 C 18,8 C 10,8 C 62 % 81 % 1017,7 hPa 0,0 l/m 9,1 km/h (2 Bft) W-NW 290 0 min
17.08.2018 23:50 17,9 C 18,8 C 10,8 C 63 % 81 % 1017,7 hPa 0,0 l/m 10,3 km/h (2 Bft) NW 310 0 min
17.08.2018 23:55 17,6 C 18,8 C 10,8 C 64 % 81 % 1017,7 hPa 0,0 l/m 6,7 km/h (2 Bft) W-NW 300 0 min
_ Min-Zeit 08:45 00:00 00:00 18:30 00:00 00:00 - 20:55 - - -
Minimum _ 16,4 C 18,8 C 10,8 C 39 % 81 % 1010,7 hPa - 0,6 km/h (0 Bft) - - -
_ Max-Zeit 17:00 00:00 00:00 08:55 00:00 23:10 07:05 04:40 - - 13:30
Maximum _ 23,9 C 18,8 C 10,8 C 88 % 81 % 1018,7 hPa 1,5 l/m 26,7 km/h
N-NO (4 Bft)
- - 7 min
Durchschnitt _ 19,8 C 18,8 C 10,8 C 65 % 81 % 1014,7 hPa #11,5 l/m 10,6 km/h (2 Bft) W-NW - #4:38 h